When you browse on this site, cookies collect data to enhance your experience and personalize the content and advertising you see.
Visit our Privacy Policy to learn more. By continuing to use the site, you agree to this use of cookies and data.
  • In United Kingdom
  • List of Countries
  • For 7 days
  • Water Temperature
  • Satellite Maps
  • Weather Map
  • Weather Widgets
  • user-avatar
    Login

    Hourly Weather Charkesar

    Today, 25 March, Monday

    Time Temperature Precipitation Wind Pressure Humidity
    00:00 +7°C° 0 mm 2 mps 655 mmHg 43%
    01:00 +7°C° 0 mm 2 mps 655 mmHg 42%
    02:00 +7°C° 0 mm 2 mps 655 mmHg 41%
    03:00 +6°C° 0 mm 2 mps 655 mmHg 41%
    04:00 +7°C° 0 mm 1 mps 655 mmHg 41%
    05:00 +7°C° 0 mm 1 mps 655 mmHg 41%
    06:00 +8°C° 0 mm 1 mps 655 mmHg 40%
    07:00 +9°C° 0 mm 1 mps 655 mmHg 39%
    08:00 +10°C° 0 mm 1 mps 656 mmHg 38%
    09:00 +11°C° 0 mm 1 mps 656 mmHg 38%
    10:00 +10°C° 0 mm 2 mps 656 mmHg 37%
    11:00 +12°C° 0 mm 2 mps 656 mmHg 37%
    12:00 +13°C° 0 mm 2 mps 656 mmHg 37%
    13:00 +14°C° 0 mm 2 mps 656 mmHg 37%
    14:00 +14°C° 0 mm 1 mps 656 mmHg 36%
    15:00 +14°C° 0 mm 1 mps 656 mmHg 35%
    16:00 +15°C° 0 mm 1 mps 656 mmHg 34%
    17:00 +15°C° 0 mm 1 mps 656 mmHg 32%
    18:00 +14°C° 0 mm 1 mps 656 mmHg 35%
    19:00 +13°C° 0 mm 1 mps 656 mmHg 37%
    20:00 +12°C° 0 mm 2 mps 656 mmHg 39%
    21:00 +10°C° 0 mm 2 mps 656 mmHg 40%
    22:00 +10°C° 0 mm 2 mps 656 mmHg 41%
    23:00 +9°C° 0 mm 3 mps 656 mmHg 41%

    Tomorrow, 26 March, Tuesday

    Time Temperature Precipitation Wind Pressure Humidity
    00:00 +9°C° 0 mm 2 mps 656 mmHg 41%
    01:00 +9°C° 0 mm 2 mps 656 mmHg 41%
    02:00 +9°C° 0 mm 2 mps 656 mmHg 41%
    03:00 +8°C° 0 mm 2 mps 655 mmHg 41%
    04:00 +8°C° 0 mm 2 mps 655 mmHg 41%
    05:00 +8°C° 0 mm 2 mps 655 mmHg 41%
    06:00 +9°C° 0 mm 2 mps 655 mmHg 39%
    07:00 +10°C° 0 mm 2 mps 655 mmHg 37%
    08:00 +12°C° 0 mm 2 mps 655 mmHg 35%
    09:00 +13°C° 0 mm 2 mps 655 mmHg 35%
    10:00 +13°C° 0 mm 3 mps 655 mmHg 35%
    11:00 +14°C° 0 mm 3 mps 655 mmHg 35%
    12:00 +16°C° 0 mm 3 mps 655 mmHg 34%
    13:00 +17°C° 0 mm 3 mps 654 mmHg 32%
    14:00 +17°C° 0 mm 3 mps 654 mmHg 31%
    15:00 +18°C° 0 mm 2 mps 654 mmHg 30%
    16:00 +18°C° 0 mm 2 mps 654 mmHg 29%
    17:00 +19°C° 0 mm 1 mps 654 mmHg 27%
    18:00 +18°C° 0 mm 1 mps 654 mmHg 30%
    19:00 +16°C° 0 mm 1 mps 654 mmHg 32%
    20:00 +15°C° 0 mm 1 mps 654 mmHg 34%
    21:00 +15°C° 0 mm 1 mps 654 mmHg 35%
    22:00 +14°C° 0 mm 1 mps 654 mmHg 36%
    23:00 +14°C° 0 mm 1 mps 654 mmHg 36%

    Day after tomorrow, 27 March, Wednesday

    Time Temperature Precipitation Wind Pressure Humidity
    00:00 +14°C° 0.2 mm 1 mps 654 mmHg 38%
    01:00 +13°C° 0.2 mm 2 mps 654 mmHg 40%
    02:00 +13°C° 0.2 mm 2 mps 654 mmHg 42%
    03:00 +13°C° 0.5 mm 2 mps 654 mmHg 47%
    04:00 +13°C° 0.5 mm 1 mps 654 mmHg 52%
    05:00 +12°C° 0.5 mm 1 mps 654 mmHg 57%
    06:00 +13°C° 0.4 mm 1 mps 654 mmHg 58%
    07:00 +13°C° 0.4 mm 1 mps 654 mmHg 59%
    08:00 +13°C° 0.4 mm 1 mps 654 mmHg 60%
    09:00 +13°C° 0.5 mm 1 mps 654 mmHg 59%
    10:00 +13°C° 0.5 mm 1 mps 654 mmHg 59%
    11:00 +14°C° 0.5 mm 2 mps 654 mmHg 58%
    12:00 +15°C° 0.2 mm 1 mps 653 mmHg 55%
    13:00 +16°C° 0.2 mm 1 mps 653 mmHg 52%
    14:00 +18°C° 0.2 mm 1 mps 653 mmHg 49%
    15:00 +16°C° 0.3 mm 1 mps 653 mmHg 50%
    16:00 +16°C° 0.3 mm 1 mps 653 mmHg 51%
    17:00 +16°C° 0.3 mm 1 mps 653 mmHg 52%
    18:00 +16°C° 0.4 mm 1 mps 653 mmHg 55%
    19:00 +15°C° 0.4 mm 1 mps 653 mmHg 59%
    20:00 +15°C° 0.4 mm 1 mps 654 mmHg 62%
    21:00 +14°C° 0.3 mm 1 mps 653 mmHg 63%
    22:00 +14°C° 0.3 mm 1 mps 653 mmHg 64%
    23:00 +14°C° 0.3 mm 1 mps 653 mmHg 65%

    28 March, Thursday

    Time Temperature Precipitation Wind Pressure Humidity
    00:00 +13°C° 0.2 mm 1 mps 653 mmHg 67%
    01:00 +13°C° 0.2 mm 1 mps 653 mmHg 68%
    02:00 +13°C° 0.2 mm 1 mps 652 mmHg 70%
    03:00 +12°C° 1 mm 1 mps 652 mmHg 72%
    04:00 +12°C° 1 mm 1 mps 652 mmHg 74%
    05:00 +12°C° 1 mm 1 mps 652 mmHg 77%
    06:00 +12°C° 0.3 mm 1 mps 653 mmHg 76%
    07:00 +12°C° 0.3 mm 1 mps 653 mmHg 76%
    08:00 +12°C° 0.3 mm 1 mps 654 mmHg 76%
    09:00 +13°C° 0 mm 1 mps 654 mmHg 72%
    10:00 +14°C° 0 mm 2 mps 654 mmHg 68%
    11:00 +14°C° 0 mm 2 mps 655 mmHg 65%
    12:00 +15°C° 0 mm 2 mps 655 mmHg 63%
    13:00 +15°C° 0 mm 2 mps 655 mmHg 62%
    14:00 +16°C° 0 mm 2 mps 655 mmHg 60%
    15:00 +16°C° 0.1 mm 2 mps 655 mmHg 60%
    16:00 +16°C° 0.1 mm 2 mps 655 mmHg 60%
    17:00 +16°C° 0.1 mm 2 mps 655 mmHg 59%
    18:00 +15°C° 0 mm 2 mps 655 mmHg 62%
    19:00 +15°C° 0 mm 2 mps 655 mmHg 65%
    20:00 +14°C° 0 mm 1 mps 655 mmHg 67%
    21:00 +14°C° 0 mm 2 mps 655 mmHg 68%
    22:00 +14°C° 0 mm 2 mps 654 mmHg 69%
    23:00 +12°C° 0 mm 3 mps 654 mmHg 71%

    29 March, Friday

    Time Temperature Precipitation Wind Pressure Humidity
    00:00 +13°C° 0 mm 2 mps 654 mmHg 70%
    01:00 +13°C° 0 mm 2 mps 653 mmHg 70%
    02:00 +13°C° 0 mm 2 mps 652 mmHg 70%
    03:00 +12°C° 0 mm 1 mps 652 mmHg 69%
    04:00 +12°C° 0 mm 1 mps 651 mmHg 68%
    05:00 +12°C° 0 mm 1 mps 651 mmHg 68%
    06:00 +12°C° 0 mm 1 mps 651 mmHg 65%
    07:00 +13°C° 0 mm 1 mps 652 mmHg 63%
    08:00 +14°C° 0 mm 2 mps 652 mmHg 61%
    09:00 +15°C° 0 mm 2 mps 653 mmHg 58%
    10:00 +14°C° 0 mm 3 mps 653 mmHg 54%
    11:00 +16°C° 0 mm 3 mps 654 mmHg 51%
    12:00 +17°C° 0.1 mm 3 mps 654 mmHg 49%
    13:00 +17°C° 0.1 mm 2 mps 654 mmHg 48%
    14:00 +17°C° 0.1 mm 2 mps 654 mmHg 46%
    15:00 +17°C° 0 mm 2 mps 654 mmHg 46%
    16:00 +17°C° 0 mm 2 mps 654 mmHg 47%
    17:00 +17°C° 0 mm 2 mps 654 mmHg 47%
    18:00 +16°C° 0 mm 2 mps 653 mmHg 51%
    19:00 +15°C° 0 mm 2 mps 653 mmHg 55%
    20:00 +14°C° 0 mm 1 mps 653 mmHg 59%
    21:00 +14°C° 0 mm 1 mps 653 mmHg 61%
    22:00 +13°C° 0 mm 1 mps 652 mmHg 62%
    23:00 +13°C° 0 mm 1 mps 652 mmHg 64%

    30 March, Saturday

    Time Temperature Precipitation Wind Pressure Humidity
    00:00 +13°C° 0.1 mm 1 mps 651 mmHg 66%
    01:00 +12°C° 0.1 mm 1 mps 651 mmHg 68%
    02:00 +12°C° 0.1 mm 1 mps 650 mmHg 70%
    03:00 +12°C° 0.4 mm 1 mps 651 mmHg 70%
    04:00 +12°C° 0.4 mm 1 mps 651 mmHg 70%
    05:00 +12°C° 0.4 mm 1 mps 651 mmHg 70%
    06:00 +10°C° 2.1 mm 2 mps 652 mmHg 73%
    07:00 +9°C° 2.1 mm 2 mps 652 mmHg 77%
    08:00 +9°C° 2.1 mm 2 mps 653 mmHg 80%
    09:00 +9°C° 0.7 mm 2 mps 654 mmHg 77%
    10:00 +10°C° 0.7 mm 2 mps 654 mmHg 73%
    11:00 +10°C° 0.7 mm 2 mps 655 mmHg 70%
    12:00 +10°C° 0.3 mm 2 mps 655 mmHg 69%
    13:00 +12°C° 0.3 mm 2 mps 655 mmHg 68%
    14:00 +12°C° 0.3 mm 2 mps 655 mmHg 67%
    15:00 +12°C° 0.6 mm 2 mps 656 mmHg 69%
    16:00 +10°C° 0.6 mm 2 mps 656 mmHg 71%
    17:00 +10°C° 0.6 mm 2 mps 656 mmHg 72%
    18:00 +10°C° 0.4 mm 2 mps 656 mmHg 75%
    19:00 +9°C° 0.4 mm 2 mps 656 mmHg 78%
    20:00 +8°C° 0.4 mm 2 mps 656 mmHg 80%
    21:00 +8°C° 0 mm 2 mps 656 mmHg 79%
    22:00 +8°C° 0 mm 2 mps 656 mmHg 78%
    23:00 +8°C° 0 mm 2 mps 656 mmHg 77%
    Show more